Погода в Неа-Калликратии

Греция     40°18′36″N   23°03′43″E
темп.,
°C
ветер,
м/с
пор.,
м/с
влажн.,
%
обл.,
%
осадки,
мм/ч
давл.,
гПа
погр.,
м
24 мая, вт
вт2400:00+21ссз337816 0.3 101018
03:00+21ссз227764 0.3 100914
06:00+20с33828 0.3 101039
09:00+20юв33805 0.4 101167
12:00+20юв677757 0.0 1012179
15:00+20ююв45825 0.0 1012129
18:00+20ююв45820 0.0 1011150
21:00+20юв45810 0.1 1012115
25 мая, ср
ср2500:00+20св3382100 1.3 101551
03:00+20зсз3385100 2.5 101481
06:00+19ссз33851 0.0 1014121
09:00+20сз22810 0.0 101548
12:00+21ююв23750 0.0 1017139
15:00+21ююв45780 0.0 1016175
18:00+21ююв56800 0.0 1016169
21:00+21вюв56800 0.2 1017101
26 мая, чт
чт2600:00+21вюв22795 0.0 101811
03:00+21зсз11780 0.0 101811
06:00+21сз33784 0.0 101833
09:00+20сз33825 0.0 101970
12:00+21з34805 0.0 101984
15:00+23ююз336979 0.0 101948
18:00+24ююв446952 0.0 1018103
21:00+21ююв79815 0.1 1019110
27 мая, пт
пт2700:00+21юв228252 0.0 101913
03:00+21юз118115 0.0 101911
06:00+21ссз33785 0.0 101822
09:00+21сз448110 0.1 101881
12:00+21зюз01801 0.0 101839
15:00+23ююв3471100 0.0 1017127
18:00+23юв557522 0.0 1015129
21:00+22вюв3481100 0.5 101654
28 мая, сб
сб2800:00+21сз668197 0.2 101695
03:00+21ссз4584100 0.2 101496
06:00+21сз5581100 0.0 1013103
09:00+21сз44815 0.0 101376
12:00+22з11775 0.0 101350
15:00+23юв3371100 0.0 101265
18:00+24ююв346988 0.0 1011191
21:00+22в008194 0.3 101011